Terminal Aerodrome Forecast
Issued by NWS

Home | Current Version | Previous Version | Graphics & Text | Print | Product List | Glossary On
Versions: 1 2 3 4 5 6 7 8 9 10 11 12 13 14 15 16 17 18 19 20 21 22
000
FTUS43 KGRB 191132
TAFRHI
TAF
KRHI 191132Z 1912/2012 03007KT P6SM OVC015
      TEMPO 1914/1916 4SM -FZDZ OVC008
     FM191600 04010G18KT 3SM -SN OVC015
      TEMPO 1916/1920 1 1/2SM -SN OVC008
     FM192000 05009G16KT 4SM -FZRA SCT008 OVC015
     FM200200 04006KT 4SM -FZDZ BR OVC008
     FM201000 05005KT 2SM -FZRASN OVC008=

USA.gov is the U.S. government's official web portal to all federal, state and local government web resources and services.